contact:dominique.lefevre@mio.osupytheas.fr, maurice.libes@osupytheas.fr, didier.mallarino@osupytheas.fr
Project:EMSO http://www.emso-fr.org/EMSO-France
Depth: 2436.0 m
Title:EMSO Ligure Ouest : Data MII capteur AQUADOPP
Date,Latitude,Longitude,X_East,Y_North,Z_Up,Amplitude_X,Amplitude_Y,Amplitude_Z,Batterie,SoundSpeed,Heading,Pitch,Roll,Pressure,TIS,Speed,Direction
, degrees North, degrees East, m.s-1, m.s-1,m.s-1, 1, 1, 1, Volt, m.s-1, degree, degree, degree, dbar, degree_C, m.s-1, degree
2020-12-11T00:04:03,42.805,6.029,-0.107,0.0,-0.052,105.0,107.0,102.0,13.4,1505.2,326.2,-0.7,1.8,2470.431,13.3,0.107,270.0
2020-12-11T00:07:03,42.805,6.029,-0.012,-0.015,-0.004,105.0,106.0,102.0,13.4,1505.3,328.1,-0.7,1.8,2470.37,13.31,0.019,218.7
2020-12-11T00:10:03,42.805,6.029,-0.047,-0.009,-0.01,107.0,106.0,102.0,13.3,1505.3,324.5,-0.7,1.8,2470.377,13.31,0.047,259.2
2020-12-11T00:13:03,42.805,6.029,-0.041,-0.014,-0.013,106.0,106.0,103.0,13.4,1505.3,324.4,-0.7,1.8,2470.407,13.31,0.043,251.1
2020-12-11T00:16:03,42.805,6.029,-0.053,-0.02,-0.017,105.0,107.0,102.0,13.4,1505.3,326.5,-0.7,1.8,2470.365,13.32,0.056,249.3
2020-12-11T00:19:03,42.805,6.029,-0.057,-0.016,-0.006,107.0,107.0,101.0,13.4,1505.3,326.2,-0.7,1.8,2470.373,13.32,0.059,254.3
2020-12-11T00:22:03,42.805,6.029,-0.071,-0.019,-0.018,106.0,107.0,103.0,13.4,1505.3,324.2,-0.7,1.8,2470.399,13.32,0.073,255.0
2020-12-11T00:25:03,42.805,6.029,-0.051,-0.034,-0.011,106.0,106.0,102.0,13.3,1505.3,327.0,-0.7,1.8,2470.363,13.32,0.061,236.3
2020-12-11T00:28:03,42.805,6.029,-0.056,-0.016,-0.017,106.0,107.0,103.0,13.4,1505.3,324.5,-0.7,1.8,2470.433,13.32,0.058,254.1
2020-12-11T00:31:03,42.805,6.029,-0.048,0.0,0.002,106.0,107.0,103.0,13.3,1505.3,326.3,-0.7,1.9,2470.385,13.32,0.048,270.0
2020-12-11T00:37:03,42.805,6.029,-0.037,-0.012,-0.015,105.0,107.0,103.0,13.3,1505.2,326.0,-0.7,1.8,2470.414,13.3,0.038,252.0
2020-12-11T00:40:03,42.805,6.029,-0.044,-0.017,0.0,105.0,106.0,103.0,13.4,1505.3,327.8,-0.7,1.8,2470.385,13.31,0.047,248.9
2020-12-11T00:43:03,42.805,6.029,-0.055,0.002,0.002,106.0,106.0,102.0,13.4,1505.3,326.8,-0.7,1.8,2470.439,13.31,0.055,272.1
2020-12-11T00:46:03,42.805,6.029,-0.052,0.0,0.009,105.0,105.0,103.0,13.4,1505.3,327.3,-0.7,1.8,2470.415,13.31,0.052,270.0
2020-12-11T00:49:03,42.805,6.029,-0.048,-0.007,-0.038,106.0,107.0,102.0,13.4,1505.3,325.8,-0.7,1.8,2470.413,13.32,0.048,261.7
2020-12-11T00:52:03,42.805,6.029,-0.043,0.019,0.011,105.0,107.0,101.0,13.4,1505.3,327.0,-0.7,1.8,2470.415,13.32,0.047,293.8
2020-12-11T00:55:03,42.805,6.029,-0.061,-0.024,0.0,106.0,105.0,103.0,13.3,1505.3,324.8,-0.7,1.8,2470.395,13.32,0.065,248.5
2020-12-11T00:58:03,42.805,6.029,-0.049,-0.005,0.002,106.0,108.0,102.0,13.3,1505.3,324.1,-0.7,1.8,2470.424,13.32,0.049,264.2
2020-12-11T01:04:03,42.805,6.029,-0.051,-0.007,-0.027,107.0,108.0,103.0,13.4,1505.2,325.7,-0.7,1.8,2470.484,13.3,0.051,262.2
2020-12-11T01:07:03,42.805,6.029,-0.051,-0.023,-0.008,106.0,107.0,103.0,13.3,1505.3,325.3,-0.7,1.8,2470.426,13.31,0.055,245.7
2020-12-11T01:10:03,42.805,6.029,-0.062,-0.022,-0.048,105.0,107.0,102.0,13.3,1505.3,324.7,-0.7,1.9,2470.449,13.31,0.065,250.5
2020-12-11T01:13:03,42.805,6.029,-0.055,-0.01,-0.029,105.0,108.0,103.0,13.4,1505.3,324.5,-0.7,1.8,2470.45,13.31,0.055,259.7
2020-12-11T01:16:03,42.805,6.029,-0.073,0.007,-0.008,104.0,106.0,102.0,13.4,1505.3,324.9,-0.7,1.8,2470.425,13.32,0.073,275.5
2020-12-11T01:19:03,42.805,6.029,-0.041,0.002,-0.033,106.0,107.0,102.0,13.4,1505.3,327.4,-0.7,1.8,2470.401,13.32,0.041,272.8
2020-12-11T01:22:02,42.805,6.029,-0.051,-0.003,-0.022,106.0,106.0,102.0,13.3,1505.3,324.5,-0.7,1.8,2470.413,13.32,0.051,266.6
2020-12-11T01:25:03,42.805,6.029,-0.036,-0.014,-0.027,105.0,106.0,103.0,13.4,1505.3,324.2,-0.7,1.8,2470.4,13.32,0.038,248.8
2020-12-11T01:28:03,42.805,6.029,-0.026,0.0,0.007,105.0,106.0,104.0,13.4,1505.3,324.0,-0.7,1.8,2470.419,13.32,0.026,270.0
2020-12-11T01:31:03,42.805,6.029,-0.041,-0.028,-0.011,105.0,105.0,102.0,13.4,1505.3,325.3,-0.7,1.8,2470.436,13.32,0.049,235.7
2020-12-11T01:34:03,42.805,6.029,-0.044,-0.004,0.01,106.0,106.0,104.0,13.4,1505.3,323.0,-0.7,1.9,2470.439,13.32,0.044,264.8
2020-12-11T01:37:03,42.805,6.029,-0.065,-0.031,-0.007,105.0,107.0,102.0,13.3,1505.3,324.6,-0.7,1.8,2470.477,13.32,0.072,244.5
2020-12-11T01:40:03,42.805,6.029,-0.042,-0.036,-0.036,105.0,107.0,102.0,13.4,1505.3,326.7,-0.7,1.8,2470.426,13.32,0.055,229.4
2020-12-11T01:43:03,42.805,6.029,-0.031,-0.004,-0.012,104.0,107.0,103.0,13.3,1505.3,326.9,-0.7,1.8,2470.421,13.32,0.031,262.7
2020-12-11T01:46:03,42.805,6.029,-0.013,-0.014,-0.034,106.0,106.0,102.0,13.4,1505.3,325.0,-0.7,1.8,2470.451,13.32,0.019,222.9
2020-12-11T01:49:03,42.805,6.029,-0.058,-0.031,-0.019,105.0,106.0,102.0,13.3,1505.3,324.0,-0.7,1.8,2470.412,13.32,0.065,241.9
2020-12-11T01:52:03,42.805,6.029,-0.056,-0.01,-0.023,106.0,105.0,102.0,13.4,1505.3,326.4,-0.7,1.8,2470.436,13.32,0.056,259.9
2020-12-11T01:55:03,42.805,6.029,-0.03,-0.028,-0.015,106.0,106.0,103.0,13.4,1505.3,326.1,-0.7,1.8,2470.453,13.32,0.041,227.0
2020-12-11T01:58:03,42.805,6.029,-0.038,-0.014,0.007,106.0,105.0,102.0,13.4,1505.3,327.1,-0.7,1.8,2470.427,13.32,0.04,249.8
2020-12-11T02:04:03,42.805,6.029,-0.055,-0.014,-0.023,106.0,106.0,102.0,13.4,1505.2,328.3,-0.7,1.8,2470.506,13.3,0.056,255.7
2020-12-11T02:07:03,42.805,6.029,-0.044,-0.001,-0.002,105.0,105.0,103.0,13.3,1505.3,325.4,-0.7,1.8,2470.468,13.31,0.044,268.7
2020-12-11T02:10:03,42.805,6.029,-0.038,-0.016,-0.07,107.0,106.0,102.0,13.4,1505.3,328.1,-0.7,1.8,2470.469,13.31,0.041,247.2
2020-12-11T02:13:03,42.805,6.029,-0.053,-0.019,0.002,106.0,106.0,103.0,13.3,1505.3,322.7,-0.7,1.8,2470.483,13.31,0.056,250.3
2020-12-11T02:16:03,42.805,6.029,-0.067,0.0,-0.013,105.0,106.0,102.0,13.4,1505.3,325.6,-0.7,1.8,2470.475,13.32,0.066,270.0
2020-12-11T02:19:03,42.805,6.029,-0.046,-0.01,-0.023,106.0,106.0,102.0,13.4,1505.3,326.4,-0.7,1.9,2470.486,13.32,0.047,257.7
2020-12-11T02:22:03,42.805,6.029,-0.047,-0.013,-0.001,106.0,105.0,103.0,13.3,1505.3,324.6,-0.7,1.8,2470.448,13.32,0.048,254.5
2020-12-11T02:25:03,42.805,6.029,-0.052,-0.016,0.005,105.0,107.0,102.0,13.3,1505.3,324.9,-0.7,1.8,2470.487,13.32,0.054,252.9
2020-12-11T02:28:03,42.805,6.029,-0.048,-0.019,0.02,104.0,107.0,102.0,13.4,1505.3,326.3,-0.7,1.8,2470.446,13.32,0.051,248.4
2020-12-11T02:31:03,42.805,6.029,-0.037,-0.014,0.009,106.0,106.0,102.0,13.3,1505.3,326.7,-0.7,1.8,2470.478,13.32,0.039,249.3
2020-12-11T02:34:03,42.805,6.029,-0.065,-0.001,-0.009,105.0,107.0,103.0,13.3,1505.3,327.1,-0.7,1.9,2470.475,13.32,0.065,269.1
2020-12-11T02:37:03,42.805,6.029,-0.071,-0.013,0.016,107.0,106.0,102.0,13.4,1505.3,324.7,-0.7,1.9,2470.465,13.32,0.072,259.6
2020-12-11T02:40:03,42.805,6.029,-0.047,-0.016,-0.011,105.0,106.0,102.0,13.3,1505.3,326.4,-0.7,1.8,2470.477,13.32,0.049,251.2
2020-12-11T02:43:03,42.805,6.029,-0.051,-0.027,-0.035,106.0,107.0,104.0,13.4,1505.3,326.2,-0.7,1.8,2470.468,13.32,0.057,242.1
2020-12-11T02:46:03,42.805,6.029,-0.07,-0.037,-0.027,106.0,107.0,103.0,13.4,1505.3,324.3,-0.7,1.9,2470.485,13.32,0.079,242.1
2020-12-11T02:49:03,42.805,6.029,-0.069,-0.057,-0.026,105.0,106.0,103.0,13.4,1505.3,327.4,-0.7,1.8,2470.493,13.32,0.089,230.4
2020-12-11T02:52:03,42.805,6.029,-0.07,-0.017,-0.044,105.0,107.0,103.0,13.4,1505.3,323.1,-0.7,1.9,2470.439,13.32,0.072,256.3
2020-12-11T02:55:03,42.805,6.029,-0.056,-0.019,-0.041,106.0,106.0,103.0,13.4,1505.3,322.9,-0.7,1.8,2470.512,13.32,0.059,251.3
2020-12-11T02:58:03,42.805,6.029,-0.076,-0.007,-0.035,106.0,106.0,103.0,13.4,1505.3,324.0,-0.7,1.8,2470.462,13.32,0.076,264.7
2020-12-11T03:04:03,42.805,6.029,-0.051,-0.013,-0.023,106.0,107.0,101.0,13.3,1505.2,324.9,-0.7,1.8,2470.533,13.3,0.052,255.7
2020-12-11T03:07:03,42.805,6.029,-0.021,-0.013,-0.019,105.0,107.0,102.0,13.4,1505.3,324.2,-0.7,1.9,2470.517,13.31,0.024,238.2
2020-12-11T03:10:03,42.805,6.029,-0.041,0.004,0.015,106.0,106.0,103.0,13.4,1505.3,328.1,-0.7,1.8,2470.443,13.31,0.041,275.6
2020-12-11T03:13:03,42.805,6.029,-0.043,-0.035,-0.011,107.0,107.0,103.0,13.4,1505.3,327.7,-0.7,1.8,2470.481,13.31,0.055,230.9
2020-12-11T03:16:03,42.805,6.029,-0.026,-0.013,-0.013,107.0,106.0,103.0,13.4,1505.3,328.0,-0.7,1.8,2470.47,13.32,0.029,243.4
2020-12-11T03:19:03,42.805,6.029,-0.05,-0.003,0.0,107.0,107.0,102.0,13.3,1505.3,324.8,-0.7,1.8,2470.53,13.32,0.05,266.6
2020-12-11T03:22:03,42.805,6.029,-0.077,0.001,-0.019,106.0,106.0,103.0,13.4,1505.3,327.3,-0.7,1.8,2470.488,13.32,0.077,270.7
2020-12-11T03:25:03,42.805,6.029,-0.028,0.01,-0.023,105.0,107.0,103.0,13.4,1505.3,325.2,-0.7,1.8,2470.525,13.32,0.029,289.6
2020-12-11T03:28:03,42.805,6.029,-0.056,0.0,0.018,106.0,106.0,102.0,13.4,1505.3,327.9,-0.7,1.8,2470.5,13.32,0.056,270.0
2020-12-11T03:31:03,42.805,6.029,-0.057,-0.027,-0.019,105.0,106.0,102.0,13.3,1505.3,325.0,-0.7,1.8,2470.521,13.32,0.063,244.7
2020-12-11T03:34:03,42.805,6.029,-0.053,-0.018,0.0,105.0,105.0,102.0,13.4,1505.3,326.3,-0.7,1.8,2470.522,13.32,0.055,251.2
2020-12-11T03:37:03,42.805,6.029,-0.045,-0.004,-0.051,105.0,106.0,102.0,13.3,1505.3,324.0,-0.7,1.8,2470.533,13.32,0.045,264.9
2020-12-11T03:40:03,42.805,6.029,-0.054,0.002,-0.046,105.0,105.0,104.0,13.4,1505.3,326.3,-0.7,1.8,2470.478,13.32,0.054,272.1
2020-12-11T03:43:03,42.805,6.029,-0.059,0.0,-0.038,103.0,108.0,103.0,13.4,1505.3,324.8,-0.7,1.8,2470.513,13.32,0.058,270.0
2020-12-11T03:46:03,42.805,6.029,-0.035,-0.009,-0.004,106.0,108.0,102.0,13.3,1505.3,327.6,-0.7,1.8,2470.52,13.32,0.036,255.6
2020-12-11T03:49:03,42.805,6.029,-0.046,-0.017,-0.034,105.0,106.0,101.0,13.4,1505.3,327.9,-0.7,1.8,2470.5,13.32,0.049,249.7
2020-12-11T03:52:03,42.805,6.029,-0.075,-0.003,-0.011,104.0,107.0,101.0,13.4,1505.3,326.7,-0.7,1.8,2470.515,13.32,0.075,267.7
2020-12-11T03:55:03,42.805,6.029,-0.055,0.007,0.02,104.0,107.0,101.0,13.4,1505.3,326.4,-0.7,1.9,2470.511,13.32,0.055,277.3
2020-12-11T03:58:03,42.805,6.029,-0.044,-0.007,-0.018,106.0,107.0,103.0,13.4,1505.3,326.7,-0.7,1.8,2470.544,13.32,0.044,261.0
2020-12-11T04:04:03,42.805,6.029,-0.068,0.025,-0.018,105.0,106.0,102.0,13.4,1505.2,326.9,-0.7,1.8,2470.545,13.3,0.072,290.2
2020-12-11T04:07:03,42.805,6.029,-0.075,0.006,-0.022,105.0,106.0,101.0,13.4,1505.3,324.2,-0.7,1.8,2470.569,13.31,0.075,274.6
2020-12-11T04:10:03,42.805,6.029,-0.058,-0.024,-0.012,105.0,106.0,103.0,13.4,1505.3,327.4,-0.7,1.8,2470.536,13.31,0.062,247.5
2020-12-11T04:13:03,42.805,6.029,-0.065,0.0,-0.019,106.0,107.0,101.0,13.4,1505.3,323.4,-0.7,1.8,2470.561,13.32,0.064,270.0
2020-12-11T04:16:03,42.805,6.029,-0.075,-0.014,-0.004,104.0,107.0,102.0,13.4,1505.3,325.9,-0.7,1.8,2470.535,13.32,0.076,259.4
2020-12-11T04:19:03,42.805,6.029,-0.043,0.021,0.014,104.0,106.0,102.0,13.4,1505.3,324.9,-0.7,1.8,2470.545,13.32,0.047,296.0
2020-12-11T04:22:03,42.805,6.029,-0.073,-0.005,-0.038,106.0,105.0,102.0,13.4,1505.3,324.8,-0.7,1.8,2470.538,13.32,0.073,266.1
2020-12-11T04:25:03,42.805,6.029,-0.041,0.001,0.002,105.0,108.0,101.0,13.4,1505.3,327.9,-0.7,1.8,2470.537,13.32,0.041,271.4
2020-12-11T04:28:03,42.805,6.029,-0.039,0.003,-0.019,105.0,106.0,101.0,13.4,1505.3,325.3,-0.7,1.8,2470.51,13.32,0.039,274.4
2020-12-11T04:31:03,42.805,6.029,-0.06,-0.002,-0.018,105.0,105.0,103.0,13.4,1505.3,323.4,-0.7,1.8,2470.492,13.32,0.06,268.1
2020-12-11T04:34:03,42.805,6.029,-0.05,0.017,-0.019,105.0,106.0,101.0,13.4,1505.3,327.1,-0.7,1.8,2470.518,13.32,0.052,288.8
2020-12-11T04:37:03,42.805,6.029,-0.067,0.002,-0.024,105.0,106.0,102.0,13.3,1505.3,328.0,-0.7,1.8,2470.552,13.32,0.067,271.7
2020-12-11T04:40:03,42.805,6.029,-0.058,0.0,-0.009,105.0,106.0,103.0,13.4,1505.3,327.3,-0.7,1.9,2470.521,13.32,0.057,270.0
2020-12-11T04:43:03,42.805,6.029,-0.047,-0.008,-0.037,104.0,106.0,102.0,13.4,1505.3,324.9,-0.7,1.8,2470.542,13.32,0.047,260.3
2020-12-11T04:46:03,42.805,6.029,-0.073,-0.014,-0.009,106.0,106.0,101.0,13.4,1505.3,324.9,-0.7,1.8,2470.523,13.32,0.074,259.1
2020-12-11T04:49:03,42.805,6.029,-0.061,-0.013,-0.021,105.0,106.0,101.0,13.4,1505.3,324.6,-0.7,1.8,2470.557,13.32,0.062,258.0
2020-12-11T04:52:03,42.805,6.029,-0.049,-0.007,-0.012,106.0,107.0,103.0,13.4,1505.3,324.8,-0.7,1.8,2470.532,13.32,0.049,261.9
2020-12-11T04:55:03,42.805,6.029,-0.085,0.003,-0.031,105.0,105.0,103.0,13.4,1505.3,325.9,-0.7,1.8,2470.512,13.32,0.085,272.0
2020-12-11T04:58:03,42.805,6.029,-0.048,-0.008,-0.022,104.0,106.0,102.0,13.4,1505.3,325.3,-0.7,1.8,2470.564,13.32,0.048,260.5
2020-12-11T05:04:03,42.805,6.029,-0.053,-0.009,-0.022,106.0,106.0,102.0,13.3,1505.2,326.8,-0.7,1.8,2470.578,13.3,0.053,260.4
2020-12-11T05:07:03,42.805,6.029,-0.085,-0.009,-0.015,104.0,106.0,103.0,13.4,1505.3,323.6,-0.7,1.8,2470.586,13.31,0.085,264.0
2020-12-11T05:10:03,42.805,6.029,-0.072,-0.005,0.0,103.0,106.0,102.0,13.4,1505.3,326.1,-0.7,1.8,2470.538,13.31,0.072,266.0
2020-12-11T05:13:03,42.805,6.029,-0.062,-0.007,0.009,106.0,105.0,101.0,13.4,1505.3,328.2,-0.7,1.8,2470.528,13.31,0.062,263.6
2020-12-11T05:16:03,42.805,6.029,-0.078,-0.03,-0.015,104.0,106.0,102.0,13.4,1505.3,328.0,-0.7,1.8,2470.514,13.32,0.083,249.0
2020-12-11T05:19:03,42.805,6.029,-0.055,0.0,0.0,104.0,105.0,101.0,13.4,1505.3,325.7,-0.7,1.8,2470.537,13.32,0.055,270.0
2020-12-11T05:22:03,42.805,6.029,-0.06,0.004,-0.002,106.0,105.0,102.0,13.4,1505.3,326.9,-0.7,1.8,2470.529,13.32,0.06,273.8
2020-12-11T05:25:03,42.805,6.029,-0.049,0.018,-0.002,106.0,105.0,103.0,13.4,1505.3,325.7,-0.7,1.8,2470.527,13.32,0.052,290.2
2020-12-11T05:28:03,42.805,6.029,-0.037,0.012,-0.018,105.0,107.0,101.0,13.4,1505.3,326.4,-0.7,1.8,2470.528,13.32,0.038,288.0
2020-12-11T05:31:03,42.805,6.029,-0.054,-0.015,0.01,105.0,107.0,100.0,13.4,1505.3,326.8,-0.7,1.8,2470.506,13.32,0.056,254.5
2020-12-11T05:34:03,42.805,6.029,-0.058,-0.015,-0.033,105.0,107.0,100.0,13.4,1505.3,324.6,-0.7,1.8,2470.486,13.32,0.059,255.5
2020-12-11T05:37:03,42.805,6.029,-0.056,-0.004,-0.018,105.0,106.0,101.0,13.4,1505.3,325.1,-0.7,1.8,2470.504,13.32,0.056,265.9
2020-12-11T05:40:03,42.805,6.029,-0.044,-0.015,-0.033,104.0,107.0,102.0,13.4,1505.3,325.9,-0.7,1.8,2470.515,13.32,0.046,251.2
2020-12-11T05:43:03,42.805,6.029,-0.072,0.0,-0.03,104.0,105.0,101.0,13.4,1505.3,324.3,-0.7,1.8,2470.523,13.32,0.071,270.0
2020-12-11T05:46:03,42.805,6.029,-0.079,-0.012,-0.019,104.0,104.0,102.0,13.4,1505.3,323.8,-0.7,1.8,2470.508,13.32,0.079,261.4
2020-12-11T05:49:03,42.805,6.029,-0.046,0.001,0.018,104.0,105.0,101.0,13.4,1505.3,323.5,-0.7,1.8,2470.526,13.32,0.046,271.2
2020-12-11T05:52:03,42.805,6.029,-0.051,0.007,-0.008,104.0,105.0,102.0,13.4,1505.3,324.5,-0.7,1.8,2470.485,13.32,0.051,277.8
2020-12-11T05:55:03,42.805,6.029,-0.045,-0.004,-0.05,104.0,106.0,101.0,13.3,1505.3,324.9,-0.7,1.8,2470.475,13.32,0.045,264.9
2020-12-11T05:58:03,42.805,6.029,-0.059,-0.014,-0.035,103.0,105.0,102.0,13.4,1505.3,324.9,-0.7,1.8,2470.465,13.32,0.06,256.7
2020-12-11T06:04:03,42.805,6.029,-0.053,0.007,-0.023,103.0,105.0,100.0,13.4,1505.2,324.1,-0.7,1.8,2470.524,13.3,0.053,277.5
2020-12-11T06:07:03,42.805,6.029,-0.079,0.001,-0.014,103.0,105.0,101.0,13.3,1505.3,326.2,-0.7,1.8,2470.499,13.31,0.079,270.7
2020-12-11T06:10:03,42.805,6.029,-0.06,0.007,0.005,103.0,105.0,100.0,13.4,1505.3,326.7,-0.7,1.9,2470.497,13.31,0.06,276.7
2020-12-11T06:13:03,42.805,6.029,-0.064,0.0,-0.009,103.0,105.0,101.0,13.4,1505.3,327.9,-0.7,1.8,2470.505,13.31,0.063,270.0
2020-12-11T06:16:03,42.805,6.029,-0.064,-0.017,-0.017,104.0,105.0,101.0,13.4,1505.3,325.9,-0.7,1.8,2470.497,13.32,0.066,255.1
2020-12-11T06:19:03,42.805,6.029,-0.065,0.004,0.018,103.0,104.0,101.0,13.4,1505.3,323.6,-0.7,1.8,2470.473,13.32,0.065,273.5
2020-12-11T06:22:03,42.805,6.029,-0.073,-0.006,-0.009,104.0,105.0,101.0,13.3,1505.3,323.2,-0.7,1.8,2470.457,13.32,0.073,265.3
2020-12-11T06:25:03,42.805,6.029,-0.052,0.002,-0.012,104.0,106.0,101.0,13.4,1505.3,324.9,-0.7,1.8,2470.508,13.32,0.052,272.2
2020-12-11T06:28:03,42.805,6.029,-0.063,-0.015,-0.047,105.0,105.0,101.0,13.3,1505.3,327.1,-0.7,1.8,2470.472,13.32,0.064,256.6
2020-12-11T06:31:03,42.805,6.029,-0.05,-0.003,0.006,105.0,103.0,101.0,13.4,1505.3,327.8,-0.7,1.8,2470.479,13.32,0.05,266.6
2020-12-11T06:34:03,42.805,6.029,-0.063,0.01,-0.005,103.0,106.0,100.0,13.4,1505.3,324.8,-0.7,1.8,2470.461,13.32,0.063,279.0
2020-12-11T06:37:03,42.805,6.029,-0.056,-0.002,-0.015,105.0,105.0,101.0,13.4,1505.3,326.6,-0.7,1.8,2470.451,13.32,0.056,268.0
2020-12-11T06:40:03,42.805,6.029,-0.038,0.0,-0.015,103.0,105.0,101.0,13.4,1505.3,328.3,-0.7,1.8,2470.476,13.32,0.038,270.0
2020-12-11T06:43:03,42.805,6.029,-0.056,-0.002,-0.011,103.0,105.0,101.0,13.4,1505.3,323.7,-0.7,1.8,2470.465,13.32,0.056,268.0
2020-12-11T06:46:03,42.805,6.029,-0.075,-0.008,-0.012,103.0,105.0,100.0,13.3,1505.3,326.0,-0.7,1.8,2470.479,13.32,0.075,263.9
2020-12-11T06:49:03,42.805,6.029,-0.08,0.004,-0.037,103.0,105.0,101.0,13.4,1505.3,326.6,-0.7,1.8,2470.463,13.32,0.08,272.9
2020-12-11T06:52:03,42.805,6.029,-0.066,0.015,-0.02,104.0,106.0,101.0,13.3,1505.3,325.2,-0.7,1.8,2470.453,13.32,0.067,282.8
2020-12-11T06:55:03,42.805,6.029,-0.072,-0.003,-0.027,103.0,107.0,101.0,13.4,1505.3,326.3,-0.7,1.8,2470.487,13.32,0.072,267.6
2020-12-11T06:58:03,42.805,6.029,-0.053,-0.027,-0.031,103.0,105.0,101.0,13.3,1505.3,324.6,-0.7,1.8,2470.444,13.32,0.059,243.0
2020-12-11T07:04:03,42.805,6.029,-0.057,-0.011,-0.044,104.0,105.0,101.0,13.3,1505.2,326.1,-0.7,1.8,2470.485,13.3,0.058,259.1
2020-12-11T07:07:03,42.805,6.029,-0.064,0.0,0.006,104.0,105.0,101.0,13.4,1505.3,322.8,-0.7,1.8,2470.496,13.31,0.063,270.0
2020-12-11T07:10:03,42.805,6.029,-0.064,0.0,-0.011,103.0,104.0,100.0,13.4,1505.3,324.5,-0.7,1.8,2470.5,13.31,0.063,270.0
2020-12-11T07:13:03,42.805,6.029,-0.065,-0.011,-0.008,103.0,104.0,101.0,13.3,1505.3,328.0,-0.7,1.8,2470.448,13.31,0.065,260.4
2020-12-11T07:16:03,42.805,6.029,-0.07,-0.019,-0.002,103.0,105.0,101.0,13.4,1505.3,326.8,-0.7,1.8,2470.505,13.32,0.072,254.8
2020-12-11T07:19:03,42.805,6.029,-0.055,-0.024,0.0,105.0,104.0,99.0,13.4,1505.3,326.6,-0.7,1.8,2470.434,13.32,0.06,246.4
2020-12-11T07:22:03,42.805,6.029,-0.06,-0.002,-0.006,103.0,104.0,102.0,13.3,1505.3,322.8,-0.7,1.8,2470.436,13.32,0.06,268.1
2020-12-11T07:25:03,42.805,6.029,-0.061,-0.011,-0.003,104.0,104.0,100.0,13.4,1505.3,324.4,-0.7,1.8,2470.46,13.32,0.061,259.8
2020-12-11T07:28:03,42.805,6.029,-0.048,-0.007,0.0,104.0,105.0,102.0,13.4,1505.3,325.3,-0.7,1.8,2470.392,13.32,0.048,261.7
2020-12-11T07:31:03,42.805,6.029,-0.049,-0.016,-0.05,104.0,105.0,101.0,13.4,1505.3,324.6,-0.7,1.8,2470.434,13.32,0.051,251.9
2020-12-11T07:34:03,42.805,6.029,-0.061,-0.019,-0.004,104.0,105.0,101.0,13.4,1505.3,326.7,-0.7,1.8,2470.405,13.32,0.063,252.7
2020-12-11T07:37:03,42.805,6.029,-0.073,-0.027,-0.052,103.0,103.0,100.0,13.4,1505.3,324.7,-0.7,1.8,2470.419,13.32,0.077,249.7
2020-12-11T07:40:03,42.805,6.029,-0.06,-0.009,-0.021,104.0,104.0,100.0,13.4,1505.3,327.6,-0.7,1.8,2470.428,13.32,0.06,261.5
2020-12-11T07:43:03,42.805,6.029,-0.061,0.0,0.0,102.0,106.0,100.0,13.3,1505.3,326.1,-0.7,1.9,2470.46,13.32,0.06,270.0
2020-12-11T07:46:03,42.805,6.029,-0.087,-0.011,-0.023,104.0,104.0,100.0,13.3,1505.3,327.6,-0.7,1.8,2470.382,13.32,0.087,262.8
2020-12-11T07:49:03,42.805,6.029,-0.056,-0.027,-0.001,103.0,104.0,100.0,13.4,1505.3,326.9,-0.7,1.8,2470.427,13.32,0.062,244.3
2020-12-11T07:55:03,42.805,6.029,-0.058,-0.003,0.006,103.0,104.0,101.0,13.4,1505.2,323.1,-0.7,1.8,2470.48,13.3,0.058,267.0
2020-12-11T07:58:03,42.805,6.029,-0.054,-0.032,-0.044,103.0,104.0,101.0,13.4,1505.3,324.2,-0.7,1.9,2470.403,13.31,0.062,239.3
2020-12-11T08:04:03,42.805,6.029,-0.055,-0.001,-0.019,102.0,105.0,101.0,13.4,1505.2,327.2,-0.7,1.8,2470.514,13.3,0.055,269.0
2020-12-11T08:07:03,42.805,6.029,-0.056,-0.004,-0.012,104.0,105.0,100.0,13.3,1505.3,324.2,-0.7,1.9,2470.453,13.31,0.056,265.9
2020-12-11T08:10:03,42.805,6.029,-0.078,-0.017,-0.018,104.0,105.0,101.0,13.4,1505.3,326.3,-0.7,1.8,2470.405,13.31,0.079,257.7
2020-12-11T08:13:03,42.805,6.029,-0.087,-0.012,-0.014,103.0,107.0,101.0,13.4,1505.3,325.8,-0.7,1.8,2470.447,13.32,0.087,262.2
2020-12-11T08:16:03,42.805,6.029,-0.056,-0.029,-0.043,104.0,105.0,101.0,13.3,1505.3,326.1,-0.7,1.8,2470.451,13.32,0.063,242.6
2020-12-11T08:19:03,42.805,6.029,-0.042,-0.013,-0.007,103.0,104.0,100.0,13.4,1505.3,323.0,-0.7,1.8,2470.425,13.32,0.043,252.8
2020-12-11T08:22:03,42.805,6.029,-0.06,-0.01,-0.024,103.0,104.0,101.0,13.3,1505.3,325.0,-0.7,1.9,2470.449,13.32,0.06,260.5
2020-12-11T08:25:03,42.805,6.029,-0.085,-0.002,-0.027,104.0,105.0,99.0,13.3,1505.3,327.8,-0.7,1.8,2470.408,13.32,0.085,268.7
2020-12-11T08:28:03,42.805,6.029,-0.068,0.008,-0.01,104.0,105.0,100.0,13.4,1505.3,327.0,-0.7,1.8,2470.417,13.32,0.068,276.7
2020-12-11T08:31:03,42.805,6.029,-0.036,-0.004,-0.016,102.0,105.0,102.0,13.4,1505.3,323.0,-0.7,1.8,2470.427,13.32,0.036,263.7
2020-12-11T08:34:03,42.805,6.029,-0.051,0.0,-0.028,102.0,106.0,102.0,13.4,1505.3,326.4,-0.7,1.8,2470.376,13.32,0.051,270.0
2020-12-11T08:37:03,42.805,6.029,-0.074,0.003,-0.056,105.0,106.0,101.0,13.3,1505.3,326.8,-0.7,1.9,2470.4,13.32,0.074,272.3
2020-12-11T08:40:03,42.805,6.029,-0.047,-0.008,-0.028,102.0,105.0,101.0,13.4,1505.3,326.7,-0.7,1.8,2470.385,13.32,0.047,260.3
2020-12-11T08:43:03,42.805,6.029,-0.041,0.008,0.009,104.0,106.0,101.0,13.4,1505.3,325.1,-0.7,1.8,2470.396,13.32,0.041,281.0
2020-12-11T08:46:03,42.805,6.029,-0.063,-0.009,-0.019,103.0,104.0,100.0,13.4,1505.3,323.1,-0.7,1.8,2470.385,13.32,0.063,261.9
2020-12-11T08:49:03,42.805,6.029,-0.069,-0.01,-0.032,103.0,104.0,101.0,13.3,1505.3,323.6,-0.7,1.8,2470.372,13.32,0.069,261.8
2020-12-11T08:52:03,42.805,6.029,-0.099,0.003,-0.037,103.0,105.0,101.0,13.4,1505.3,325.5,-0.7,1.8,2470.419,13.32,0.099,271.7
2020-12-11T08:55:03,42.805,6.029,-0.087,0.001,-0.041,103.0,106.0,100.0,13.4,1505.3,326.8,-0.7,1.8,2470.389,13.32,0.087,270.7
2020-12-11T08:58:03,42.805,6.029,-0.043,0.0,0.025,102.0,104.0,100.0,13.4,1505.3,323.4,-0.7,1.8,2470.365,13.32,0.043,270.0
2020-12-11T09:04:03,42.805,6.029,-0.063,-0.013,-0.037,104.0,106.0,100.0,13.4,1505.2,326.2,-0.8,1.8,2470.372,13.3,0.064,258.3
2020-12-11T09:07:03,42.805,6.029,-0.073,0.007,-0.008,103.0,106.0,102.0,13.3,1505.3,327.1,-0.7,1.8,2470.429,13.31,0.073,275.5
2020-12-11T09:10:03,42.805,6.029,-0.07,0.012,-0.017,104.0,106.0,101.0,13.4,1505.3,324.1,-0.7,1.8,2470.397,13.31,0.071,279.7
2020-12-11T09:13:03,42.805,6.029,-0.076,0.007,-0.026,102.0,106.0,102.0,13.4,1505.3,324.6,-0.8,1.9,2470.392,13.32,0.076,275.3
2020-12-11T09:16:03,42.805,6.029,-0.037,0.004,0.006,102.0,105.0,100.0,13.4,1505.3,327.6,-0.7,1.8,2470.373,13.32,0.037,276.2
2020-12-11T09:19:03,42.805,6.029,-0.079,-0.018,-0.027,102.0,105.0,101.0,13.4,1505.3,327.2,-0.7,1.8,2470.407,13.32,0.081,257.2
2020-12-11T09:22:03,42.805,6.029,-0.065,0.018,-0.007,103.0,106.0,100.0,13.3,1505.3,325.7,-0.7,1.9,2470.37,13.32,0.067,285.5
2020-12-11T09:25:03,42.805,6.029,-0.074,0.008,0.004,103.0,105.0,101.0,13.4,1505.3,325.7,-0.7,1.8,2470.374,13.32,0.074,276.2
2020-12-11T09:28:03,42.805,6.029,-0.057,-0.005,-0.025,102.0,105.0,101.0,13.3,1505.3,326.2,-0.7,1.8,2470.36,13.32,0.057,265.0
2020-12-11T09:31:03,42.805,6.029,-0.082,0.0,-0.034,103.0,106.0,101.0,13.4,1505.3,325.6,-0.7,1.8,2470.385,13.32,0.081,270.0
2020-12-11T09:34:03,42.805,6.029,-0.036,-0.013,-0.023,103.0,107.0,101.0,13.3,1505.3,323.2,-0.7,1.9,2470.377,13.32,0.038,250.1
2020-12-11T09:37:03,42.805,6.029,-0.069,0.0,-0.036,103.0,105.0,100.0,13.4,1505.3,326.0,-0.7,1.8,2470.383,13.32,0.068,270.0
2020-12-11T09:40:03,42.805,6.029,-0.087,0.014,-0.016,104.0,104.0,100.0,13.4,1505.3,324.2,-0.7,1.8,2470.373,13.32,0.088,279.1
2020-12-11T09:43:03,42.805,6.029,-0.026,0.016,0.042,103.0,104.0,101.0,13.4,1505.3,327.5,-0.7,1.8,2470.345,13.32,0.03,301.6
2020-12-11T09:46:03,42.805,6.029,-0.064,-0.013,-0.042,102.0,105.0,101.0,13.4,1505.3,327.5,-0.7,1.8,2470.376,13.32,0.065,258.5
2020-12-11T09:49:03,42.805,6.029,-0.082,-0.005,-0.015,103.0,105.0,102.0,13.4,1505.3,325.1,-0.7,1.8,2470.382,13.32,0.082,266.5
2020-12-11T09:52:03,42.805,6.029,-0.06,-0.005,-0.018,103.0,106.0,99.0,13.4,1505.3,326.9,-0.7,1.8,2470.409,13.32,0.06,265.2
2020-12-11T09:55:03,42.805,6.029,-0.047,-0.004,-0.002,102.0,104.0,101.0,13.4,1505.3,325.4,-0.6,1.8,2470.395,13.32,0.047,265.1
2020-12-11T09:58:03,42.805,6.029,-0.082,0.01,-0.027,102.0,105.0,101.0,13.4,1505.3,325.7,-0.7,1.8,2470.344,13.32,0.082,277.0